Details From GCLA - La Palma
To GCXO - Tenerife Norte - Los Rodeos
Flight Number -
Tags decoded
Created
Modified
Stats Distance 79 nm / 145 km
Max Altitude 0 ft / 0 m
Waypoints 3
Social Downloads 1
Likes 0
Share VATSIM

Download

Looking for another format? Having issues loading an existing format? Contact us
Advertisement - Login to hide

Notes

Requested: GCLA ARACO GCXO

Route

GCLA ARACO GCXO

ID Type Via Altitude Latitude Longitude Leg Dist Tot Dist Heading (true) Name
O GCLA APT - 0 ft / 0 m 28.62648˚ -17.75561˚ - 0 nm - La Palma
ARACO FIX - 0 ft / 0 m 28.43252˚ -17.45233˚ 19 nm 19 nm 126° / 126° -
O GCXO APT - 0 ft / 0 m 28.48266˚ -16.34154˚ 58 nm 78 nm 87° / 87° Tenerife Norte - Los Rodeos

Altitude Profile

Advertisement - Login to hide

GCLA

Details ICAO GCLA (SPC)
Name La Palma
Region Canary Islands
Timezone Atlantic/Canary (UTC+1.0)
Stats Elevation 107 ft / 33 m (AMSL)
Location 28.626480° -17.755613°
Runways 1
Magnetic Variation 5.597° W

METAR

GCLA 272000Z 00000KT 9999 FEW020 SCT060 22/18 Q1010

Decode

TAF

TAF GCLA 272000Z 2721/2821 29006KT 9999 BKN045 TX25/2813Z TN20/2806Z TEMPO 2809/2815 17010KT PROB40 TEMPO 2815/2819 03010KT PROB40 TEMPO 2721/2821 3000 SHRA FEW025TCU

Decode

Departure Runways

ID Width Length Bearing (true) Bearing (mag) Surface Threshold Offset Overrun Length
01 148 ft / 45 m 7,240 ft / 2,207 m 359.02° 4.62° Asphalt 0 ft / 0 m 279 ft / 85 m
19 148 ft / 45 m 7,240 ft / 2,207 m 179.02° 184.62° Asphalt 0 ft / 0 m 236 ft / 72 m

GCXO

Details ICAO GCXO (TFN)
Name Tenerife Norte - Los Rodeos
Region Canary Islands
Timezone Atlantic/Canary (UTC+1.0)
Stats Elevation 2,076 ft / 633 m (AMSL)
Location 28.482656° -16.341541°
Runways 1
Magnetic Variation 5.077° W

METAR

GCXO 272000Z 29010KT 9999 SCT008 BKN017 17/15 Q1012 WS R30 NOSIG

Decode

TAF

TAF GCXO 272000Z 2721/2821 13006KT 9999 SCT025 TX24/2813Z TN13/2806Z TEMPO 2721/2802 30010KT TEMPO 2721/2821 BKN014 PROB40 TEMPO 2721/2821 4500 SHRA FEW020TCU PROB30 TEMPO 2721/2802 1500 BCFG BKN003

Decode

Destination Runways

ID Width Length Bearing (true) Bearing (mag) Surface Threshold Offset Overrun Length
12 148 ft / 45 m 11,165 ft / 3,403 m 110.67° 115.75° Asphalt 0 ft / 0 m 197 ft / 60 m
30 148 ft / 45 m 11,165 ft / 3,403 m 290.69° 295.77° Asphalt 0 ft / 0 m 197 ft / 60 m

Approach Navaids

Runway Type Ident Frequency Range Bearing (true) Bearing (mag) Slope Elevation
12 Localiser INOR 108.70 MHz 18 nm / 33 km 110.69° 115.76° - 3,356 ft / 1,023 m (AMSL)
12 Glidescope INOR 108.70 MHz 10 nm / 19 km 110.68° 115.76° 3.00° 2,070 ft / 631 m (AMSL)
12 DME INOR 108.70 MHz 18 nm / 33 km - - - 2,070 ft / 631 m (AMSL)
30 Localiser ITF 110.30 MHz 18 nm / 33 km 290.67° 295.74° - 2,025 ft / 617 m (AMSL)
30 Glidescope ITF 110.30 MHz 10 nm / 19 km 290.68° 295.76° 3.00° 2,025 ft / 617 m (AMSL)
30 DME ITF 110.30 MHz 18 nm / 33 km - - - 2,031 ft / 619 m (AMSL)

Popular Alternatives